Weather Roundup
Issued by NWS Springfield, MO

Home | Current Version | Previous Version | Text Only | Print | Product List | Glossary On
Versions: 1 2 3 4 5 6 7 8 9 10 11 12 13 14 15 16 17 18 19 20 21 22 23 24 25 26 27 28 29 30 31 32 33 34 35 36 37 38 39 40 41 42 43 44 45 46 47 48 49 50
000
NZUS99 KSGF 040610
HRRSGF

HOURLY WEATHER
NATIONAL WEATHER SERVICE SPRINGFIELD MO
100 AM CDT TUE AUG 04 2015

......SGF CWA......

CITY           SKY/WX    TMP DP  RH WIND       PRES   REMARKS
SPRINGFIELD    CLEAR     74  67  78 S3        29.97S
6HR MIN TEMP:  74; 6HR MAX TEMP:  89;

JOPLIN         CLEAR     73  66  78 S5        29.96R
6HR MIN TEMP:  73; 6HR MAX TEMP:  89;

WEST PLAINS    CLEAR     73  69  87 CALM      29.99S
6HR MIN TEMP:  72; 6HR MAX TEMP:  88;

ROLLA          PTCLDY    75  70  84 S6        29.95S
6HR MIN TEMP:  71; 6HR MAX TEMP:  85;

OSAGE BEACH    PTCLDY    75  72  88 CALM      29.95F
BRANSON        CLEAR     75  66  73 S3        29.99S

......SURROUNDING SGF CWA......

CITY           SKY/WX    TMP DP  RH WIND       PRES   REMARKS
CHANUTE        CLEAR     72  67  84 S7        29.95R
PARSONS        CLEAR     68  68 100 CALM      29.95S
COFFEYVILLE    CLEAR     72  68  87 SE3       29.93F
EMPORIA        PTCLDY    74  68  81 S8        29.93F
GROVE OK       CLEAR     72  72 100 CALM      29.96S
ROGERS AR      CLEAR     72  70  93 NE3       29.99S
SILOAM SPRINGS CLEAR     72  64  78 CALM      29.97S
HARRISON AR    CLEAR     70  67  90 CALM      29.99S
NEAR YELLVILLE CLEAR     73  68  83 CALM      29.94S

......KANSAS AND MISSOURI......

CITY           SKY/WX    TMP DP  RH WIND       PRES   REMARKS
KANSAS CTY INT PTCLDY    75  67  76 E8        29.95S
DOWNTOWN KC    CLEAR     78  68  71 VRB3      29.94R
COLUMBIA       MOCLDY    74  69  85 E6        29.95F
SEDALIA        PTCLDY    76  70  82 CALM      29.96S
ST JOSEPH      PTCLDY    73  68  84 CALM      29.95R
ST LOUIS       MOCLDY    80  66  62 NE3       29.95F
SPIRIT OF STL  MOCLDY    74  73  97 CALM      29.93F
KIRKSVILLE     MOCLDY    68  64  87 E3        29.98S
WICHITA        CLOUDY    76  68  76 S5        29.93F
TOPEKA         CLEAR     75  71  87 E5        29.93R
OLATHE         CLEAR     75  70  84 CALM      29.95R

......TENNESSEE......

CITY           SKY/WX    TMP DP  RH WIND       PRES   REMARKS
MEMPHIS        MOCLDY    82  69  64 CALM      29.94S
NASHVILLE      CLEAR     77  70  79 CALM      29.96R

......ARKANSAS.......

CITY           SKY/WX    TMP DP  RH WIND       PRES   REMARKS
FAYETTEVILLE   CLEAR     69  69 100 S3        29.99S
FT SMITH       CLEAR     77  72  84 E6        29.93R
LITTLE ROCK    PTCLDY    79  70  74 CALM      29.93S

......OKLAHOMA.......

CITY           SKY/WX    TMP DP  RH WIND       PRES   REMARKS
TULSA          MOCLDY    78  70  76 SE6       29.91F
PONCA CITY     MOCLDY    78  68  71 SE9       29.92F
MCALESTER      CLEAR     79  67  66 E6        29.93S
OKLAHOMA CITY  MOCLDY    74  67  78 E7        29.93S

......IOWA............

CITY           SKY/WX    TMP DP  RH WIND       PRES   REMARKS
DES MOINES     PTCLDY    67  59  75 S3        29.97S
QUAD CITIES    CLEAR     62  56  80 SW3       29.95S

......ILLINOIS........

CITY           SKY/WX    TMP DP  RH WIND       PRES   REMARKS
QUINCY         PTCLDY    68  63  84 NE6       29.96S
CHICAGO        CLEAR     67  56  67 NW8       29.91S




USA.gov is the U.S. government's official web portal to all federal, state and local government web resources and services.